Time,TemperatureF,DewpointF,PressureIn,WindDirection,WindDirectionDegrees,WindSpeedMPH,WindSpeedGustMPH,Humidity,HourlyPrecipIn,Conditions,Clouds,dailyrainin,SoftwareType,DateUTC
2013-01-06 16:03:00,25.0,20.0,30.19,NW,306,2.0,8.0,80,0.00,,,0.05,,2013-01-06 21:03:00,
2013-01-06 16:22:00,25.0,20.0,30.21,WNW,296,6.0,11.0,80,0.00,,,0.05,,2013-01-06 21:22:00,
2013-01-06 16:33:00,25.0,20.0,30.22,WNW,286,3.0,7.0,81,0.00,,,0.05,,2013-01-06 21:33:00,
2013-01-06 16:42:00,25.0,20.0,30.22,WNW,286,3.0,7.0,81,0.00,,,0.05,,2013-01-06 21:42:00,
2013-01-06 16:52:00,25.0,20.0,30.22,West,270,1.0,7.0,81,0.00,,,0.05,,2013-01-06 21:52:00,
2013-01-06 17:02:00,25.0,20.0,30.24,West,277,3.0,6.0,81,0.00,,,0.05,,2013-01-06 22:02:00,
2013-01-06 17:12:00,25.0,20.0,30.24,West,277,3.0,6.0,81,0.00,,,0.05,,2013-01-06 22:12:00,
2013-01-06 17:22:00,25.0,20.0,30.24,WSW,250,1.0,7.0,82,0.00,,,0.05,,2013-01-06 22:22:00,
2013-01-06 17:33:00,25.0,20.0,30.24,WSW,237,1.0,6.0,82,0.00,,,0.04,,2013-01-06 22:33:00,
2013-01-06 17:43:00,25.0,20.0,30.24,WSW,237,1.0,6.0,82,0.00,,,0.04,,2013-01-06 22:43:00,
2013-01-06 17:52:00,25.0,20.0,30.26,WSW,254,2.0,5.0,82,0.00,,,0.04,,2013-01-06 22:52:00,
2013-01-06 18:02:00,25.0,20.0,30.26,NW,308,2.0,8.0,82,0.00,,,0.04,,2013-01-06 23:02:00,
2013-01-06 18:12:00,25.0,20.0,30.26,NW,308,2.0,8.0,82,0.00,,,0.04,,2013-01-06 23:12:00,
2013-01-06 18:22:00,25.0,20.0,30.26,NW,308,2.0,8.0,82,0.00,,,0.04,,2013-01-06 23:22:00,
2013-01-06 18:33:00,25.0,21.0,30.27,West,262,1.0,7.0,83,0.00,,,0.04,,2013-01-06 23:33:00,
2013-01-06 18:43:00,25.0,21.0,30.27,West,262,1.0,7.0,83,0.00,,,0.04,,2013-01-06 23:43:00,
2013-01-06 18:53:00,25.0,21.0,30.29,West,268,2.0,8.0,83,0.00,,,0.04,,2013-01-06 23:53:00,
2013-01-06 19:02:00,25.0,21.0,30.29,WSW,246,3.0,8.0,83,0.00,,,0.04,,2013-01-07 00:02:00,
2013-01-06 19:12:00,25.0,21.0,30.29,WSW,246,3.0,8.0,83,0.00,,,0.04,,2013-01-07 00:12:00,
2013-01-06 19:23:00,25.0,21.0,30.30,WSW,244,3.0,7.0,83,0.00,,,0.04,,2013-01-07 00:23:00,
2013-01-06 19:33:00,26.0,22.0,30.32,WSW,252,1.0,5.0,83,0.00,,,0.04,,2013-01-07 00:33:00,
2013-01-06 19:42:00,26.0,22.0,30.32,WSW,252,1.0,5.0,83,0.00,,,0.04,,2013-01-07 00:42:00,
2013-01-06 19:52:00,26.0,22.0,30.32,West,259,1.0,6.0,83,0.00,,,0.04,,2013-01-07 00:52:00,
2013-01-06 20:02:00,26.0,22.0,30.32,WSW,243,1.0,8.0,83,0.00,,,0.04,,2013-01-07 01:02:00,
2013-01-06 20:12:00,26.0,22.0,30.32,WSW,243,1.0,8.0,83,0.00,,,0.04,,2013-01-07 01:12:00,
2013-01-06 20:23:00,26.0,22.0,30.32,West,261,3.0,7.0,83,0.00,,,0.04,,2013-01-07 01:23:00,
2013-01-06 20:32:00,25.0,21.0,30.32,West,270,1.0,8.0,83,0.00,,,0.04,,2013-01-07 01:32:00,
2013-01-06 20:42:00,25.0,21.0,30.32,West,270,1.0,8.0,83,0.00,,,0.04,,2013-01-07 01:42:00,
2013-01-06 20:52:00,25.0,21.0,30.33,WSW,254,1.0,6.0,83,0.00,,,0.04,,2013-01-07 01:52:00,
2013-01-06 21:02:00,25.0,21.0,30.34,WNW,287,2.0,6.0,83,0.00,,,0.04,,2013-01-07 02:02:00,
2013-01-06 21:12:00,25.0,21.0,30.34,WNW,287,2.0,6.0,83,0.00,,,0.04,,2013-01-07 02:12:00,
2013-01-06 21:22:00,25.0,21.0,30.34,WNW,297,2.0,6.0,83,0.00,,,0.04,,2013-01-07 02:22:00,
2013-01-06 21:32:00,25.0,21.0,30.34,West,270,1.0,4.0,83,0.00,,,0.04,,2013-01-07 02:32:00,
2013-01-06 21:42:00,25.0,21.0,30.34,West,270,1.0,4.0,83,0.00,,,0.04,,2013-01-07 02:42:00,
2013-01-06 21:52:00,25.0,21.0,30.35,WNW,291,1.0,4.0,83,0.00,,,0.04,,2013-01-07 02:52:00,
2013-01-06 22:02:00,25.0,21.0,30.35,West,278,1.0,7.0,83,0.00,,,0.04,,2013-01-07 03:02:00,
2013-01-06 22:12:00,25.0,21.0,30.35,West,278,1.0,7.0,83,0.00,,,0.04,,2013-01-07 03:12:00,
2013-01-06 22:22:00,26.0,22.0,30.35,SW,234,2.0,7.0,83,0.00,,,0.04,,2013-01-07 03:22:00,
2013-01-06 22:33:00,26.0,21.0,30.35,WNW,301,2.0,7.0,82,0.00,,,0.04,,2013-01-07 03:33:00,
2013-01-06 22:42:00,26.0,21.0,30.35,WNW,301,2.0,7.0,82,0.00,,,0.04,,2013-01-07 03:42:00,
2013-01-06 22:52:00,26.0,21.0,30.36,West,273,2.0,6.0,82,0.00,,,0.04,,2013-01-07 03:52:00,
2013-01-06 23:02:00,26.0,21.0,30.37,WSW,257,2.0,7.0,82,0.00,,,0.04,,2013-01-07 04:02:00,
2013-01-06 23:12:00,26.0,21.0,30.37,WSW,257,2.0,7.0,82,0.00,,,0.04,,2013-01-07 04:12:00,
2013-01-06 23:22:00,26.0,21.0,30.37,WNW,293,1.0,5.0,81,0.00,,,0.04,,2013-01-07 04:22:00,
2013-01-06 23:32:00,26.0,21.0,30.38,West,275,1.0,5.0,81,0.00,,,0.04,,2013-01-07 04:32:00,
2013-01-06 23:42:00,26.0,21.0,30.38,West,275,1.0,5.0,81,0.00,,,0.04,,2013-01-07 04:42:00,
2013-01-06 23:52:00,26.0,21.0,30.38,West,265,0.0,3.0,81,0.00,,,0.04,,2013-01-07 04:52:00,